Location: Middle Street
(51.7167°N, 0.0333°E)
Time: 02:30:28
(UTC+00:00)

Cosmos 1092 Rocket - Pass Details

Date: 20 January 2021
Orbit: 954 x 995 km, 83.0° (Epoch: 28 February)

Event Time Altitude Azimuth Distance (km) Brightness Sun altitude
Rises 18:38:16 0° 174° (S) 3,655 7.0 -19.7°
Reaches altitude 10° 18:40:48 10° 170° (S) 2,706 6.3 -20.1°
Maximum altitude 18:46:51 59° 93° (E) 1,111 3.9 -21.0°
Drops below altitude 10° 18:52:53 10° 16° (NNE) 2,702 6.1 -21.9°
Sets 18:55:25 0° 13° (NNE) 3,649 6.8 -22.3°
